Date,TemperatureHighF,TemperatureAvgF,TemperatureLowF,DewpointHighF,DewpointAvgF,DewpointLowF,HumidityHigh,HumidityAvg,HumidityLow,PressureMaxIn,PressureMinIn,WindSpeedMaxMPH,WindSpeedAvgMPH,GustSpeedMaxMPH,PrecipitationSumIn
2013-2-1,62,28,14,29,17,5,89,71,10,0.00,40.00,3,1,6,0.00
2013-2-2,49,29,15,30,21,11,90,75,40,0.00,40.00,2,1,4,0.00
2013-2-3,56,29,12,32,16,8,90,66,17,0.00,40.00,5,2,10,0.00
2013-2-4,62,29,15,27,16,5,86,63,11,0.00,40.00,8,1,12,0.00
2013-2-5,51,36,24,27,18,12,83,52,24,0.00,40.00,12,5,23,0.00
2013-2-6,56,29,11,28,15,1,89,63,17,0.00,40.00,5,2,9,0.00
2013-2-7,37,30,22,28,17,1,85,59,28,0.00,40.00,10,6,19,0.00
2013-2-8,35,25,13,19,13,9,89,63,37,0.00,40.00,8,4,16,0.00
2013-2-9,40,24,11,16,12,7,85,63,36,0.00,40.00,7,3,16,0.00
2013-2-10,41,28,8,23,13,3,86,56,33,0.00,40.00,7,3,17,0.00
2013-2-11,47,26,11,19,14,7,86,64,31,0.00,40.00,5,2,12,0.00
2013-2-12,54,24,10,25,14,6,87,69,22,0.00,40.00,4,1,8,0.00
2013-2-13,56,29,14,27,18,11,88,70,29,0.00,40.00,5,2,12,0.00
2013-2-14,52,31,18,32,23,15,90,73,38,0.00,40.00,6,2,14,0.00
2013-2-15,63,32,16,32,21,13,91,69,17,0.00,40.00,4,1,8,0.00
2013-2-16,54,33,15,30,19,9,90,63,17,0.00,40.00,8,2,17,0.00
2013-2-17,53,31,16,26,15,6,87,59,15,0.00,40.00,5,2,9,0.00
2013-2-18,48,30,14,24,16,10,86,60,24,0.00,40.00,13,5,21,0.00
2013-2-19,33,26,15,26,19,12,88,75,50,0.00,40.00,11,6,23,0.01
2013-2-20,42,25,12,20,14,7,88,66,26,0.00,40.00,7,2,12,0.07
2013-2-21,47,26,12,21,13,8,86,63,23,0.00,40.00,6,3,14,0.04
2013-2-22,54,31,13,25,18,9,85,61,27,0.00,40.00,17,4,29,0.01
2013-2-23,38,31,20,27,15,7,72,53,29,0.00,40.00,17,6,35,0.01
2013-2-24,46,26,12,14,11,7,85,58,21,0.00,40.00,5,2,10,0.01
2013-2-25,48,32,14,27,10,4,84,47,18,0.00,40.00,12,4,25,0.00
2013-2-26,44,26,12,13,9,0,85,54,17,0.00,40.00,7,3,13,0.00
2013-2-27,57,29,9,19,11,5,83,55,16,0.00,40.00,8,2,16,0.00
2013-2-28,57,38,24,31,26,18,90,64,36,0.00,40.00,5,2,11,0.00